| time (UTC) | temp C | wind direction | speed KPH | gust KPH | rain 1hr cm | rain 24hr cm | rain mn cm | humidity % | barometer mb |
| 20260903213552 | 38 | 68 | 1.6 | 8.0 | 0.00 | 0.00 | 0.00 | 45 | 1013.8 |
| 20260903213105 | 39 | 82 | 1.6 | 8.0 | 0.00 | 0.00 | 0.00 | 47 | 1013.8 |
| 20260903212551 | 38 | 80 | 1.6 | 8.0 | 0.00 | 0.00 | 0.00 | 46 | 1014.0 |
| 20260903212051 | 38 | 86 | 1.6 | 8.0 | 0.00 | 0.00 | 0.00 | 46 | 1014.0 |
| 20260903211603 | 38 | 86 | 3.2 | 8.0 | 0.00 | 0.00 | 0.00 | 45 | 1014.0 |
| 20260903211052 | 39 | 84 | 3.2 | 8.0 | 0.00 | 0.00 | 0.00 | 47 | 1014.0 |
| 20260903210552 | 39 | 356 | 1.6 | 4.8 | 0.00 | 0.00 | 0.00 | 47 | 1014.1 |
| 20260903205554 | 38 | 164 | 0.0 | 8.0 | 0.00 | 0.00 | 0.00 | 46 | 1014.3 |
| 20260903205051 | 38 | 30 | 1.6 | 8.0 | 0.00 | 0.00 | 0.00 | 46 | 1014.5 |
| 20260903204608 | 38 | 67 | 1.6 | 11.3 | 0.00 | 0.00 | 0.00 | 45 | 1014.5 |
| 20260903204051 | 38 | 68 | 3.2 | 11.3 | 0.00 | 0.00 | 0.00 | 46 | 1014.5 |
| 20260903203555 | 38 | 72 | 3.2 | 9.7 | 0.00 | 0.00 | 0.00 | 46 | 1014.6 |
| 20260903203102 | 38 | 83 | 3.2 | 9.7 | 0.00 | 0.00 | 0.00 | 47 | 1014.6 |
| 20260903202555 | 38 | 115 | 3.2 | 6.4 | 0.00 | 0.00 | 0.00 | 47 | 1014.7 |
| 20260903202051 | 38 | 105 | 3.2 | 6.4 | 0.00 | 0.00 | 0.00 | 47 | 1014.6 |
| 20260903201607 | 38 | 90 | 1.6 | 6.4 | 0.00 | 0.00 | 0.00 | 49 | 1014.8 |
| 20260903201052 | 38 | 70 | 1.6 | 6.4 | 0.00 | 0.00 | 0.00 | 46 | 1014.9 |
| 20260903200552 | 38 | 91 | 3.2 | 6.4 | 0.00 | 0.00 | 0.00 | 48 | 1015.0 |
| 20260903200108 | 38 | 84 | 3.2 | 9.7 | 0.00 | 0.00 | 0.00 | 48 | 1015.0 |
| 20260903195555 | 39 | 102 | 1.6 | 9.7 | 0.00 | 0.00 | 0.00 | 47 | 1015.0 |
| 20260903195051 | 38 | 59 | 3.2 | 9.7 | 0.00 | 0.00 | 0.00 | 49 | 1015.1 |
| 20260903194601 | 38 | 57 | 0.0 | 6.4 | 0.00 | 0.00 | 0.00 | 52 | 1015.2 |
| 20260903194052 | 38 | 83 | 3.2 | 6.4 | 0.00 | 0.00 | 0.00 | 50 | 1015.3 |
| 20260903193551 | 38 | 56 | 1.6 | 8.0 | 0.00 | 0.00 | 0.00 | 51 | 1015.3 |
| 20260903193101 | 37 | 27 | 1.6 | 9.7 | 0.00 | 0.00 | 0.00 | 48 | 1015.4 |
| 20260903192552 | 38 | 86 | 3.2 | 9.7 | 0.00 | 0.00 | 0.00 | 48 | 1015.5 |
| 20260903192052 | 38 | 86 | 1.6 | 6.4 | 0.00 | 0.00 | 0.00 | 49 | 1015.6 |
| 20260903191607 | 38 | 70 | 1.6 | 6.4 | 0.00 | 0.00 | 0.00 | 50 | 1015.6 |
| 20260903191051 | 38 | 62 | 1.6 | 6.4 | 0.00 | 0.00 | 0.00 | 49 | 1015.7 |
| 20260903190551 | 38 | 52 | 0.0 | 4.8 | 0.00 | 0.00 | 0.00 | 51 | 1015.8 |
| 20260903190106 | 37 | 99 | 1.6 | 8.0 | 0.00 | 0.00 | 0.00 | 51 | 1015.8 |
| 20260903185551 | 37 | 103 | 3.2 | 8.0 | 0.00 | 0.00 | 0.00 | 56 | 1015.9 |
| 20260903185051 | 37 | 87 | 3.2 | 6.4 | 0.00 | 0.00 | 0.00 | 55 | 1015.9 |
| 20260903184601 | 37 | 106 | 1.6 | 4.8 | 0.00 | 0.00 | 0.00 | 53 | 1015.9 |
| 20260903184052 | 37 | 259 | 0.0 | 8.0 | 0.00 | 0.00 | 0.00 | 51 | 1015.9 |
| 20260903183551 | 37 | 88 | 3.2 | 8.0 | 0.00 | 0.00 | 0.00 | 54 | 1016.1 |
| 20260903183104 | 36 | 84 | 1.6 | 6.4 | 0.00 | 0.00 | 0.00 | 57 | 1016.1 |
| 20260903182554 | 36 | 95 | 3.2 | 9.7 | 0.00 | 0.00 | 0.00 | 54 | 1016.2 |
| 20260903182051 | 36 | 109 | 3.2 | 9.7 | 0.00 | 0.00 | 0.00 | 55 | 1016.3 |
| 20260903181559 | 36 | 86 | 3.2 | 6.4 | 0.00 | 0.00 | 0.00 | 52 | 1016.4 |
| 20260903181055 | 37 | 110 | 0.0 | 6.4 | 0.00 | 0.00 | 0.00 | 51 | 1016.3 |
| 20260903180552 | 37 | 98 | 1.6 | 6.4 | 0.00 | 0.00 | 0.00 | 54 | 1016.5 |
| 20260903175552 | 37 | 248 | 0.0 | 6.4 | 0.00 | 0.00 | 0.00 | 54 | 1016.5 |
| 20260903175051 | 37 | 94 | 1.6 | 6.4 | 0.00 | 0.00 | 0.00 | 55 | 1016.6 |
| 20260903174600 | 36 | 96 | 1.6 | 4.8 | 0.00 | 0.00 | 0.00 | 56 | 1016.7 |
| 20260903174051 | 36 | 267 | 1.6 | 4.8 | 0.00 | 0.00 | 0.00 | 53 | 1016.6 |
| 20260903173552 | 36 | 0 | 0.0 | 11.3 | 0.00 | 0.00 | 0.00 | 56 | 1016.7 |
| 20260903173107 | 36 | 77 | 1.6 | 11.3 | 0.00 | 0.00 | 0.00 | 53 | 1016.7 |
| 20260903172552 | 36 | 323 | 3.2 | 9.7 | 0.00 | 0.00 | 0.00 | 52 | 1016.8 |
| 20260903172052 | 36 | 69 | 3.2 | 9.7 | 0.00 | 0.00 | 0.00 | 53 | 1016.9 |
| 20260903171600 | 36 | 77 | 4.8 | 9.7 | 0.00 | 0.00 | 0.00 | 58 | 1017.0 |
| 20260903171051 | 37 | 75 | 3.2 | 9.7 | 0.00 | 0.00 | 0.00 | 56 | 1017.1 |
| 20260903170552 | 37 | 46 | 3.2 | 8.0 | 0.00 | 0.00 | 0.00 | 58 | 1017.1 |
| 20260903170110 | 37 | 85 | 1.6 | 6.4 | 0.00 | 0.00 | 0.00 | 55 | 1017.2 |
| 20260903165552 | 36 | 96 | 1.6 | 4.8 | 0.00 | 0.00 | 0.00 | 56 | 1017.3 |
| 20260903165051 | 37 | 115 | 1.6 | 6.4 | 0.00 | 0.00 | 0.00 | 55 | 1017.2 |
| 20260903164603 | 37 | 75 | 1.6 | 8.0 | 0.00 | 0.00 | 0.00 | 56 | 1017.4 |
| 20260903164051 | 36 | 233 | 3.2 | 8.0 | 0.00 | 0.00 | 0.00 | 57 | 1017.4 |
| 20260903163551 | 36 | 0 | 3.2 | 8.0 | 0.00 | 0.00 | 0.00 | 57 | 1017.3 |
| 20260903163113 | 36 | 107 | 3.2 | 6.4 | 0.00 | 0.00 | 0.00 | 59 | 1017.5 |
| 20260903162552 | 37 | 158 | 1.6 | 6.4 | 0.00 | 0.00 | 0.00 | 54 | 1017.4 |
| 20260903162052 | 36 | 0 | 0.0 | 6.4 | 0.00 | 0.00 | 0.00 | 59 | 1017.5 |
| 20260903161612 | 36 | 84 | 0.0 | 4.8 | 0.00 | 0.00 | 0.00 | 59 | 1017.6 |
| 20260903161052 | 35 | 104 | 1.6 | 3.2 | 0.00 | 0.00 | 0.00 | 60 | 1017.5 |
| 20260903160553 | 36 | 231 | 1.6 | 4.8 | 0.00 | 0.00 | 0.00 | 56 | 1017.6 |
| 20260903160107 | 36 | 53 | 0.0 | 6.4 | 0.00 | 0.00 | 0.00 | 58 | 1017.6 |
| 20260903155552 | 36 | 50 | 1.6 | 6.4 | 0.00 | 0.00 | 0.00 | 57 | 1017.6 |
| 20260903155051 | 36 | 77 | 3.2 | 6.4 | 0.00 | 0.00 | 0.00 | 57 | 1017.5 |
| 20260903154600 | 36 | 81 | 0.0 | 4.8 | 0.00 | 0.00 | 0.00 | 61 | 1017.6 |
| 20260903154051 | 36 | 92 | 0.0 | 4.8 | 0.00 | 0.00 | 0.00 | 61 | 1017.6 |
| 20260903153551 | 35 | 61 | 1.6 | 4.8 | 0.00 | 0.00 | 0.00 | 63 | 1017.7 |
| 20260903153101 | 35 | 0 | 0.0 | 4.8 | 0.00 | 0.00 | 0.00 | 60 | 1017.7 |
| 20260903152552 | 35 | 107 | 1.6 | 4.8 | 0.00 | 0.00 | 0.00 | 57 | 1017.7 |
| 20260903152051 | 35 | 90 | 1.6 | 4.8 | 0.00 | 0.00 | 0.00 | 60 | 1017.6 |
| 20260903151605 | 35 | 88 | 0.0 | 4.8 | 0.00 | 0.00 | 0.00 | 64 | 1017.6 |
| 20260903151052 | 35 | 114 | 0.0 | 4.8 | 0.00 | 0.00 | 0.00 | 66 | 1017.6 |
| 20260903150552 | 35 | 148 | 0.0 | 4.8 | 0.00 | 0.00 | 0.00 | 65 | 1017.5 |
| 20260903150119 | 35 | 0 | 1.6 | 4.8 | 0.00 | 0.00 | 0.00 | 63 | 1017.6 |
| 20260903145551 | 34 | 131 | 0.0 | 3.2 | 0.00 | 0.00 | 0.00 | 68 | 1017.7 |
| 20260903145051 | 34 | 55 | 0.0 | 3.2 | 0.00 | 0.00 | 0.00 | 66 | 1017.7 |
| 20260903144603 | 33 | 115 | 0.0 | 4.8 | 0.00 | 0.00 | 0.00 | 69 | 1017.7 |
| 20260903144051 | 33 | 70 | 1.6 | 4.8 | 0.00 | 0.00 | 0.00 | 68 | 1017.6 |
| 20260903143551 | 33 | 50 | 1.6 | 4.8 | 0.00 | 0.00 | 0.00 | 68 | 1017.7 |
| 20260903143104 | 33 | 92 | 1.6 | 4.8 | 0.00 | 0.00 | 0.00 | 70 | 1017.7 |
| 20260903142552 | 33 | 145 | 0.0 | 3.2 | 0.00 | 0.00 | 0.00 | 67 | 1017.7 |
| 20260903142056 | 33 | 59 | 1.6 | 4.8 | 0.00 | 0.00 | 0.00 | 68 | 1017.7 |
| 20260903141606 | 33 | 72 | 1.6 | 4.8 | 0.00 | 0.00 | 0.00 | 65 | 1017.6 |
| 20260903141054 | 33 | 0 | 0.0 | 1.6 | 0.00 | 0.00 | 0.00 | 67 | 1017.6 |
| 20260903140552 | 33 | 82 | 0.0 | 1.6 | 0.00 | 0.00 | 0.00 | 68 | 1017.5 |
| 20260903140101 | 32 | 0 | 0.0 | 1.6 | 0.00 | 0.00 | 0.00 | 71 | 1017.5 |
| 20260903135551 | 32 | 82 | 0.0 | 1.6 | 0.00 | 0.00 | 0.00 | 69 | 1017.6 |
| 20260903135051 | 32 | 0 | 0.0 | 1.6 | 0.00 | 0.00 | 0.00 | 69 | 1017.7 |
| 20260903134602 | 32 | 0 | 0.0 | 1.6 | 0.00 | 0.00 | 0.00 | 72 | 1017.7 |
| 20260903134053 | 31 | 0 | 0.0 | 1.6 | 0.00 | 0.00 | 0.00 | 72 | 1017.6 |
| 20260903133552 | 31 | 0 | 0.0 | 1.6 | 0.00 | 0.00 | 0.00 | 75 | 1017.6 |
| 20260903133107 | 30 | 0 | 0.0 | 1.6 | 0.00 | 0.00 | 0.00 | 76 | 1017.7 |
| 20260903132552 | 30 | 0 | 0.0 | 1.6 | 0.00 | 0.00 | 0.00 | 79 | 1017.7 |
| 20260903132051 | 28 | 0 | 0.0 | 1.6 | 0.00 | 0.00 | 0.00 | 81 | 1017.7 |
| 20260903131605 | 27 | 0 | 0.0 | 0.0 | 0.00 | 0.00 | 0.00 | 85 | 1017.9 |
| 20260903131052 | 26 | 0 | 0.0 | 1.6 | 0.00 | 0.00 | 0.00 | 88 | 1017.9 |
| 20260903130554 | 26 | 0 | 0.0 | 1.6 | 0.00 | 0.00 | 0.00 | 89 | 1018.0 |
| 20260903130111 | 25 | 0 | 0.0 | 1.6 | 0.00 | 0.00 | 0.00 | 89 | 1018.0 |
| 20260903125553 | 25 | 82 | 0.0 | 1.6 | 0.00 | 0.00 | 0.00 | 92 | 1017.9 |
| 20260903125051 | 24 | 0 | 0.0 | 1.6 | 0.00 | 0.00 | 0.00 | 93 | 1017.8 |
| 20260903124607 | 23 | 0 | 0.0 | 1.6 | 0.00 | 0.00 | 0.00 | 93 | 1017.8 |
| 20260903124051 | 23 | 81 | 0.0 | 1.6 | 0.00 | 0.00 | 0.00 | 94 | 1017.9 |
| 20260903123551 | 23 | 81 | 0.0 | 1.6 | 0.00 | 0.00 | 0.00 | 95 | 1017.9 |
| 20260903123105 | 23 | 0 | 0.0 | 1.6 | 0.00 | 0.00 | 0.00 | 95 | 1017.9 |
| 20260903122553 | 23 | 0 | 0.0 | 0.0 | 0.00 | 0.00 | 0.00 | 96 | 1017.7 |
| 20260903122051 | 23 | 0 | 0.0 | 0.0 | 0.00 | 0.00 | 0.00 | 96 | 1017.6 |
| 20260903121601 | 23 | 0 | 0.0 | 0.0 | 0.00 | 0.00 | 0.00 | 96 | 1017.4 |
| 20260903121052 | 23 | 0 | 0.0 | 0.0 | 0.00 | 0.00 | 0.00 | 96 | 1017.3 |
| 20260903120554 | 22 | 0 | 0.0 | 0.0 | 0.00 | 0.00 | 0.00 | 96 | 1017.4 |
| 20260903115551 | 22 | 0 | 0.0 | 0.0 | 0.00 | 0.00 | 0.00 | 96 | 1017.4 |
| 20260903115052 | 22 | 0 | 0.0 | 0.0 | 0.00 | 0.00 | 0.00 | 96 | 1017.3 |
| 20260903114619 | 22 | 0 | 0.0 | 0.0 | 0.00 | 0.00 | 0.00 | 96 | 1017.3 |
| 20260903114055 | 22 | 0 | 0.0 | 0.0 | 0.00 | 0.00 | 0.00 | 96 | 1017.2 |
| 20260903113551 | 22 | 0 | 0.0 | 1.6 | 0.00 | 0.00 | 0.00 | 96 | 1017.1 |
| 20260903113106 | 22 | 0 | 0.0 | 1.6 | 0.00 | 0.00 | 0.00 | 95 | 1017.1 |
| 20260903112553 | 22 | 0 | 0.0 | 1.6 | 0.00 | 0.00 | 0.00 | 96 | 1017.1 |
| 20260903112052 | 22 | 0 | 0.0 | 1.6 | 0.00 | 0.00 | 0.00 | 95 | 1017.2 |
| 20260903111617 | 22 | 0 | 0.0 | 1.6 | 0.00 | 0.00 | 0.00 | 95 | 1017.0 |
| 20260903111051 | 22 | 0 | 0.0 | 1.6 | 0.00 | 0.00 | 0.00 | 95 | 1017.0 |
| 20260903110550 | 23 | 0 | 0.0 | 0.0 | 0.00 | 0.00 | 0.00 | 95 | 1016.9 |
| 20260903110110 | 23 | 0 | 0.0 | 0.0 | 0.00 | 0.00 | 0.00 | 95 | 1016.8 |
| 20260903105554 | 23 | 0 | 0.0 | 0.0 | 0.00 | 0.00 | 0.00 | 95 | 1016.9 |
| 20260903105055 | 23 | 0 | 0.0 | 0.0 | 0.00 | 0.00 | 0.00 | 94 | 1016.9 |
| 20260903104615 | 23 | 0 | 0.0 | 0.0 | 0.00 | 0.00 | 0.00 | 94 | 1016.8 |
| 20260903104051 | 23 | 0 | 0.0 | 0.0 | 0.00 | 0.00 | 0.00 | 94 | 1016.7 |
| 20260903103551 | 23 | 0 | 0.0 | 0.0 | 0.00 | 0.00 | 0.00 | 93 | 1016.8 |
| 20260903103117 | 23 | 0 | 0.0 | 0.0 | 0.00 | 0.00 | 0.00 | 93 | 1016.7 |
| 20260903102552 | 23 | 0 | 0.0 | 0.0 | 0.00 | 0.00 | 0.00 | 93 | 1016.8 |
| 20260903102053 | 23 | 0 | 0.0 | 0.0 | 0.00 | 0.00 | 0.00 | 93 | 1016.8 |
| 20260903101607 | 23 | 0 | 0.0 | 0.0 | 0.00 | 0.00 | 0.00 | 93 | 1016.8 |
| 20260903101052 | 23 | 0 | 0.0 | 0.0 | 0.00 | 0.00 | 0.00 | 92 | 1016.7 |
| 20260903100555 | 23 | 0 | 0.0 | 0.0 | 0.00 | 0.00 | 0.00 | 92 | 1016.8 |
| 20260903100105 | 23 | 0 | 0.0 | 0.0 | 0.00 | 0.00 | 0.00 | 92 | 1016.7 |
| 20260903095551 | 23 | 0 | 0.0 | 0.0 | 0.00 | 0.00 | 0.00 | 93 | 1016.7 |
| 20260903095051 | 23 | 0 | 0.0 | 0.0 | 0.00 | 0.00 | 0.00 | 92 | 1016.7 |
| 20260903094604 | 23 | 0 | 0.0 | 0.0 | 0.00 | 0.00 | 0.00 | 92 | 1016.6 |
| 20260903094052 | 23 | 0 | 0.0 | 0.0 | 0.00 | 0.00 | 0.00 | 92 | 1016.6 |
| 20260903093552 | 23 | 0 | 0.0 | 0.0 | 0.00 | 0.00 | 0.00 | 92 | 1016.7 |
| 20260903093128 | 23 | 0 | 0.0 | 0.0 | 0.00 | 0.00 | 0.00 | 91 | 1016.6 |
| 20260903092551 | 23 | 0 | 0.0 | 0.0 | 0.00 | 0.00 | 0.00 | 91 | 1016.6 |
| 20260903092052 | 23 | 0 | 0.0 | 0.0 | 0.00 | 0.00 | 0.00 | 91 | 1016.6 |
| 20260903091608 | 23 | 0 | 0.0 | 0.0 | 0.00 | 0.00 | 0.00 | 91 | 1016.7 |
| 20260903091052 | 23 | 0 | 0.0 | 0.0 | 0.00 | 0.00 | 0.00 | 91 | 1016.5 |
| 20260903090553 | 23 | 0 | 0.0 | 0.0 | 0.00 | 0.00 | 0.00 | 91 | 1016.6 |
| 20260903085552 | 23 | 0 | 0.0 | 0.0 | 0.00 | 0.00 | 0.00 | 91 | 1016.6 |
| 20260903085051 | 23 | 0 | 0.0 | 1.6 | 0.00 | 0.00 | 0.00 | 91 | 1016.5 |
| 20260903084600 | 23 | 0 | 0.0 | 1.6 | 0.00 | 0.00 | 0.00 | 91 | 1016.6 |
| 20260903084051 | 23 | 0 | 0.0 | 1.6 | 0.00 | 0.00 | 0.00 | 91 | 1016.6 |
| 20260903083553 | 23 | 0 | 0.0 | 0.0 | 0.00 | 0.00 | 0.00 | 91 | 1016.5 |
| 20260903083100 | 23 | 0 | 0.0 | 0.0 | 0.00 | 0.00 | 0.00 | 91 | 1016.5 |
| 20260903082552 | 23 | 0 | 0.0 | 0.0 | 0.00 | 0.00 | 0.00 | 91 | 1016.5 |
| 20260903082052 | 24 | 0 | 0.0 | 0.0 | 0.00 | 0.00 | 0.00 | 91 | 1016.4 |
| 20260903081603 | 24 | 0 | 0.0 | 0.0 | 0.00 | 0.00 | 0.00 | 91 | 1016.4 |
| 20260903081052 | 24 | 0 | 0.0 | 0.0 | 0.00 | 0.00 | 0.00 | 90 | 1016.4 |
| 20260903080553 | 23 | 0 | 0.0 | 0.0 | 0.00 | 0.00 | 0.00 | 90 | 1016.4 |
| 20260903080059 | 24 | 0 | 0.0 | 0.0 | 0.00 | 0.00 | 0.00 | 89 | 1016.4 |
| 20260903075552 | 24 | 0 | 0.0 | 0.0 | 0.00 | 0.00 | 0.00 | 89 | 1016.3 |
| 20260903075055 | 24 | 0 | 0.0 | 0.0 | 0.00 | 0.00 | 0.00 | 89 | 1016.4 |
| 20260903074600 | 24 | 0 | 0.0 | 0.0 | 0.00 | 0.00 | 0.00 | 90 | 1016.3 |
| 20260903074051 | 24 | 0 | 0.0 | 0.0 | 0.00 | 0.00 | 0.00 | 90 | 1016.4 |
| 20260903073554 | 24 | 0 | 0.0 | 0.0 | 0.00 | 0.00 | 0.00 | 89 | 1016.3 |
| 20260903073101 | 24 | 0 | 0.0 | 0.0 | 0.00 | 0.00 | 0.00 | 89 | 1016.3 |
| 20260903072551 | 24 | 0 | 0.0 | 0.0 | 0.00 | 0.00 | 0.00 | 88 | 1016.3 |
| 20260903072052 | 25 | 0 | 0.0 | 0.0 | 0.00 | 0.00 | 0.00 | 88 | 1016.3 |
| 20260903071629 | 25 | 0 | 0.0 | 1.6 | 0.00 | 0.00 | 0.00 | 88 | 1016.4 |
| 20260903071052 | 25 | 0 | 0.0 | 1.6 | 0.00 | 0.00 | 0.00 | 87 | 1016.4 |
| 20260903070552 | 25 | 0 | 0.0 | 1.6 | 0.00 | 0.00 | 0.00 | 87 | 1016.4 |
| 20260903070111 | 25 | 0 | 0.0 | 1.6 | 0.00 | 0.00 | 0.00 | 87 | 1016.4 |
| 20260903065552 | 25 | 0 | 0.0 | 1.6 | 0.00 | 0.00 | 0.00 | 86 | 1016.5 |
| 20260903065051 | 25 | 0 | 0.0 | 1.6 | 0.00 | 0.00 | 0.00 | 85 | 1016.5 |
| 20260903064606 | 25 | 0 | 0.0 | 1.6 | 0.00 | 0.00 | 0.00 | 84 | 1016.5 |
| 20260903064052 | 26 | 77 | 0.0 | 1.6 | 0.00 | 0.00 | 0.00 | 84 | 1016.5 |
| 20260903063552 | 26 | 0 | 0.0 | 1.6 | 0.00 | 0.00 | 0.00 | 83 | 1016.4 |
| 20260903063107 | 26 | 0 | 0.0 | 1.6 | 0.00 | 0.00 | 0.00 | 82 | 1016.5 |
| 20260903062554 | 26 | 0 | 0.0 | 4.8 | 0.00 | 0.00 | 0.00 | 82 | 1016.6 |
| 20260903062053 | 26 | 0 | 0.0 | 4.8 | 0.00 | 0.00 | 0.00 | 82 | 1016.6 |
| 20260903061611 | 26 | 60 | 1.6 | 4.8 | 0.00 | 0.00 | 0.00 | 83 | 1016.5 |
| 20260903061051 | 25 | 66 | 0.0 | 3.2 | 0.00 | 0.00 | 0.00 | 84 | 1016.4 |
| 20260903060551 | 25 | 0 | 0.0 | 3.2 | 0.00 | 0.00 | 0.00 | 87 | 1016.6 |
| 20260903060107 | 25 | 112 | 0.0 | 1.6 | 0.00 | 0.00 | 0.00 | 88 | 1016.6 |
| 20260903055553 | 25 | 112 | 0.0 | 1.6 | 0.00 | 0.00 | 0.00 | 89 | 1016.6 |
| 20260903055051 | 25 | 0 | 0.0 | 1.6 | 0.00 | 0.00 | 0.00 | 89 | 1016.6 |
| 20260903054600 | 25 | 0 | 0.0 | 1.6 | 0.00 | 0.00 | 0.00 | 88 | 1016.6 |
| 20260903054052 | 25 | 0 | 0.0 | 0.0 | 0.00 | 0.00 | 0.00 | 88 | 1016.5 |
| 20260903053551 | 25 | 0 | 0.0 | 0.0 | 0.00 | 0.00 | 0.00 | 89 | 1016.5 |
| 20260903053103 | 25 | 0 | 0.0 | 0.0 | 0.00 | 0.00 | 0.00 | 88 | 1016.6 |
| 20260903052552 | 25 | 0 | 0.0 | 1.6 | 0.00 | 0.00 | 0.00 | 88 | 1016.6 |
| 20260903052052 | 25 | 0 | 0.0 | 1.6 | 0.00 | 0.00 | 0.00 | 89 | 1016.5 |
| 20260903051610 | 25 | 0 | 0.0 | 1.6 | 0.00 | 0.00 | 0.00 | 89 | 1016.5 |
| 20260903051051 | 25 | 0 | 0.0 | 1.6 | 0.00 | 0.00 | 0.00 | 90 | 1016.5 |
| 20260903050551 | 25 | 0 | 0.0 | 1.6 | 0.00 | 0.00 | 0.00 | 90 | 1016.5 |
| 20260903050115 | 25 | 0 | 0.0 | 1.6 | 0.00 | 0.00 | 0.00 | 90 | 1016.5 |
| 20260903045551 | 26 | 0 | 0.0 | 1.6 | 0.00 | 0.00 | 0.00 | 90 | 1016.5 |
| 20260903045051 | 26 | 0 | 0.0 | 1.6 | 0.00 | 0.00 | 0.00 | 90 | 1016.5 |
| 20260903044606 | 26 | 0 | 0.0 | 1.6 | 0.00 | 0.00 | 0.00 | 89 | 1016.5 |
| 20260903044052 | 26 | 0 | 0.0 | 0.0 | 0.00 | 0.00 | 0.00 | 87 | 1016.5 |
| 20260903043552 | 26 | 0 | 0.0 | 0.0 | 0.00 | 0.00 | 0.00 | 86 | 1016.4 |
| 20260903043103 | 26 | 0 | 0.0 | 0.0 | 0.00 | 0.00 | 0.00 | 86 | 1016.4 |
| 20260903042551 | 26 | 0 | 0.0 | 1.6 | 0.00 | 0.00 | 0.00 | 86 | 1016.4 |
| 20260903042054 | 26 | 0 | 0.0 | 1.6 | 0.00 | 0.00 | 0.00 | 86 | 1016.4 |
| 20260903041612 | 26 | 0 | 0.0 | 1.6 | 0.00 | 0.00 | 0.00 | 86 | 1016.4 |
| 20260903041051 | 26 | 0 | 0.0 | 0.0 | 0.00 | 0.00 | 0.00 | 85 | 1016.4 |
| 20260903040554 | 26 | 0 | 0.0 | 1.6 | 0.00 | 0.00 | 0.00 | 85 | 1016.4 |
| 20260903040111 | 26 | 0 | 0.0 | 1.6 | 0.00 | 0.00 | 0.00 | 85 | 1016.5 |
| 20260903035551 | 26 | 0 | 0.0 | 1.6 | 0.00 | 0.00 | 0.00 | 85 | 1016.5 |
| 20260903035051 | 26 | 0 | 0.0 | 1.6 | 0.00 | 0.00 | 0.00 | 85 | 1016.4 |
| 20260903034609 | 26 | 0 | 0.0 | 1.6 | 0.00 | 0.00 | 0.00 | 84 | 1016.5 |
| 20260903034052 | 27 | 126 | 0.0 | 1.6 | 0.00 | 0.00 | 0.00 | 84 | 1016.4 |
| 20260903033551 | 26 | 97 | 0.0 | 1.6 | 0.00 | 0.00 | 0.00 | 83 | 1016.4 |
| 20260903033103 | 26 | 94 | 0.0 | 0.0 | 0.00 | 0.00 | 0.00 | 83 | 1016.5 |
| 20260903032551 | 26 | 0 | 0.0 | 0.0 | 0.00 | 0.00 | 0.00 | 85 | 1016.5 |
| 20260903032052 | 26 | 0 | 0.0 | 0.0 | 0.00 | 0.00 | 0.00 | 85 | 1016.5 |
| 20260903031557 | 26 | 0 | 0.0 | 0.0 | 0.00 | 0.00 | 0.00 | 85 | 1016.5 |
| 20260903031054 | 26 | 0 | 0.0 | 0.0 | 0.00 | 0.00 | 0.00 | 85 | 1016.5 |
| 20260903030554 | 26 | 0 | 0.0 | 0.0 | 0.00 | 0.00 | 0.00 | 86 | 1016.6 |
| 20260903030103 | 26 | 0 | 0.0 | 0.0 | 0.00 | 0.00 | 0.00 | 85 | 1016.6 |
| 20260903025550 | 27 | 0 | 0.0 | 1.6 | 0.00 | 0.00 | 0.00 | 85 | 1016.5 |
| 20260903025053 | 27 | 0 | 0.0 | 1.6 | 0.00 | 0.00 | 0.00 | 84 | 1016.5 |
| 20260903024604 | 27 | 0 | 0.0 | 0.0 | 0.00 | 0.00 | 0.00 | 84 | 1016.4 |
| 20260903024052 | 27 | 0 | 0.0 | 0.0 | 0.00 | 0.00 | 0.00 | 83 | 1016.5 |
| 20260903023551 | 27 | 0 | 0.0 | 0.0 | 0.00 | 0.00 | 0.00 | 83 | 1016.4 |
| 20260903023103 | 27 | 0 | 0.0 | 1.6 | 0.00 | 0.00 | 0.00 | 82 | 1016.4 |
| 20260903022554 | 27 | 0 | 0.0 | 1.6 | 0.00 | 0.00 | 0.00 | 82 | 1016.4 |
| 20260903022051 | 27 | 93 | 0.0 | 1.6 | 0.00 | 0.00 | 0.00 | 82 | 1016.3 |
| 20260903021605 | 28 | 0 | 0.0 | 1.6 | 0.00 | 0.00 | 0.00 | 81 | 1016.3 |
| 20260903021054 | 28 | 0 | 0.0 | 1.6 | 0.00 | 0.00 | 0.00 | 80 | 1016.2 |
| 20260903020554 | 28 | 0 | 0.0 | 1.6 | 0.00 | 0.00 | 0.00 | 79 | 1016.1 |
| 20260903020104 | 28 | 0 | 0.0 | 1.6 | 0.00 | 0.00 | 0.00 | 79 | 1016.1 |
| 20260903015552 | 28 | 0 | 0.0 | 0.0 | 0.00 | 0.00 | 0.00 | 77 | 1016.0 |
| 20260903015052 | 28 | 0 | 0.0 | 1.6 | 0.00 | 0.00 | 0.00 | 77 | 1015.9 |
| 20260903014625 | 28 | 0 | 0.0 | 1.6 | 0.00 | 0.00 | 0.00 | 77 | 1015.9 |
| 20260903014054 | 28 | 0 | 0.0 | 1.6 | 0.00 | 0.00 | 0.00 | 79 | 1015.9 |
| 20260903013552 | 28 | 0 | 0.0 | 1.6 | 0.00 | 0.00 | 0.00 | 79 | 1015.7 |
| 20260903013110 | 28 | 94 | 0.0 | 1.6 | 0.00 | 0.00 | 0.00 | 78 | 1015.7 |
| 20260903012551 | 28 | 94 | 0.0 | 1.6 | 0.00 | 0.00 | 0.00 | 78 | 1015.8 |
| 20260903012052 | 28 | 0 | 0.0 | 0.0 | 0.00 | 0.00 | 0.00 | 78 | 1015.8 |
| 20260903011603 | 29 | 0 | 0.0 | 0.0 | 0.00 | 0.00 | 0.00 | 77 | 1015.7 |
| 20260903011052 | 29 | 0 | 0.0 | 1.6 | 0.00 | 0.00 | 0.00 | 76 | 1015.6 |
| 20260903010551 | 30 | 0 | 0.0 | 1.6 | 0.00 | 0.00 | 0.00 | 76 | 1015.6 |
| 20260903005553 | 30 | 0 | 0.0 | 1.6 | 0.00 | 0.00 | 0.00 | 73 | 1015.5 |
| 20260903005052 | 30 | 0 | 0.0 | 1.6 | 0.00 | 0.00 | 0.00 | 72 | 1015.6 |
| 20260903004602 | 30 | 0 | 0.0 | 0.0 | 0.00 | 0.00 | 0.00 | 72 | 1015.5 |
| 20260903004051 | 30 | 0 | 0.0 | 0.0 | 0.00 | 0.00 | 0.00 | 70 | 1015.5 |
| 20260903003552 | 31 | 0 | 0.0 | 0.0 | 0.00 | 0.00 | 0.00 | 70 | 1015.6 |
| 20260903003120 | 31 | 0 | 0.0 | 1.6 | 0.00 | 0.00 | 0.00 | 70 | 1015.5 |
| 20260903002551 | 31 | 0 | 0.0 | 1.6 | 0.00 | 0.00 | 0.00 | 67 | 1015.5 |
| 20260903002050 | 31 | 0 | 0.0 | 0.0 | 0.00 | 0.00 | 0.00 | 68 | 1015.6 |
| 20260903001603 | 32 | 0 | 0.0 | 0.0 | 0.00 | 0.00 | 0.00 | 67 | 1015.5 |
| 20260903001052 | 32 | 0 | 0.0 | 0.0 | 0.00 | 0.00 | 0.00 | 66 | 1015.5 |
| 20260903000553 | 32 | 0 | 0.0 | 1.6 | 0.00 | 0.00 | 0.00 | 64 | 1015.6 |
| 20260903000109 | 32 | 0 | 0.0 | 1.6 | 0.00 | 0.00 | 0.00 | 63 | 1015.6 |
| 20260902235552 | 32 | 0 | 0.0 | 0.0 | 0.00 | 0.00 | 0.00 | 60 | 1015.6 |
| 20260902235055 | 33 | 0 | 0.0 | 0.0 | 0.00 | 0.00 | 0.00 | 58 | 1015.6 |
| 20260902234606 | 33 | 0 | 0.0 | 1.6 | 0.00 | 0.00 | 0.00 | 57 | 1015.6 |
| 20260902234053 | 33 | 0 | 0.0 | 1.6 | 0.00 | 0.00 | 0.00 | 55 | 1015.6 |
| 20260902233550 | 33 | 93 | 0.0 | 1.6 | 0.00 | 0.00 | 0.00 | 55 | 1015.6 |
| 20260902233100 | 34 | 0 | 0.0 | 1.6 | 0.00 | 0.00 | 0.00 | 55 | 1015.6 |
| 20260902232552 | 34 | 0 | 0.0 | 1.6 | 0.00 | 0.00 | 0.00 | 54 | 1015.6 |
| 20260902232051 | 35 | 0 | 0.0 | 1.6 | 0.00 | 0.00 | 0.00 | 54 | 1015.7 |
| 20260902231607 | 35 | 0 | 0.0 | 1.6 | 0.00 | 0.00 | 0.00 | 52 | 1015.7 |
| 20260902231052 | 35 | 0 | 0.0 | 1.6 | 0.00 | 0.00 | 0.00 | 51 | 1015.7 |
| 20260902230551 | 35 | 0 | 0.0 | 1.6 | 0.00 | 0.00 | 0.00 | 50 | 1015.8 |
| 20260902230119 | 35 | 0 | 0.0 | 1.6 | 0.00 | 0.00 | 0.00 | 49 | 1015.7 |
| 20260902225554 | 36 | 100 | 0.0 | 3.2 | 0.00 | 0.00 | 0.00 | 48 | 1015.6 |
| 20260902225053 | 36 | 101 | 0.0 | 3.2 | 0.00 | 0.00 | 0.00 | 47 | 1015.7 |
| 20260902224612 | 36 | 84 | 0.0 | 3.2 | 0.00 | 0.00 | 0.00 | 46 | 1015.7 |
| 20260902224051 | 37 | 0 | 0.0 | 3.2 | 0.00 | 0.00 | 0.00 | 45 | 1015.7 |
| 20260902223554 | 37 | 92 | 1.6 | 3.2 | 0.00 | 0.00 | 0.00 | 44 | 1015.7 |
| 20260902223114 | 37 | 70 | 1.6 | 3.2 | 0.00 | 0.00 | 0.00 | 45 | 1015.7 |
| 20260902222552 | 37 | 144 | 0.0 | 4.8 | 0.00 | 0.00 | 0.00 | 45 | 1015.7 |
| 20260902222053 | 37 | 266 | 1.6 | 4.8 | 0.00 | 0.00 | 0.00 | 45 | 1015.9 |
| 20260902221610 | 37 | 89 | 1.6 | 4.8 | 0.00 | 0.00 | 0.00 | 46 | 1015.9 |
| 20260902221055 | 37 | 61 | 0.0 | 4.8 | 0.00 | 0.00 | 0.00 | 46 | 1015.9 |
| 20260902220552 | 37 | 0 | 0.0 | 4.8 | 0.00 | 0.00 | 0.00 | 45 | 1015.9 |
| 20260902220111 | 37 | 295 | 1.6 | 6.4 | 0.00 | 0.00 | 0.00 | 44 | 1015.8 |
| 20260902215552 | 37 | 305 | 1.6 | 9.7 | 0.00 | 0.00 | 0.00 | 45 | 1015.8 |
| 20260902215051 | 37 | 185 | 3.2 | 9.7 | 0.00 | 0.00 | 0.00 | 45 | 1015.9 |
| 20260902214624 | 38 | 270 | 3.2 | 8.0 | 0.00 | 0.00 | 0.00 | 44 | 1015.8 |
| 20260902214052 | 38 | 108 | 3.2 | 9.7 | 0.00 | 0.00 | 0.00 | 44 | 1015.9 |